SWA3534 KFLL-KBNA

Flight info

Callsign SWA3534
Flight time 1h 52m
Altitude 36000
Route HROCK2 KPASA Q118 JAMIZ DCT TIFFT DCT TIROE DCT MGRIF DCT
Aircraft B738/M-SDE2E3FGHIRWXY/LB1

Departure

Time 2026-05-04 01:48
Airport Fort Lauderdale Hollywood International Airport (KFLL)

Arrival

Time 2026-05-04 03:40
Airport Nashville International Airport (KBNA)
Time Latitude Longitude Altitude Speed Heading
2026-05-04 01:15 26.07413 -80.13796 13 ft 0 kts 257°
2026-05-04 01:27 26.07415 -80.13784 13 ft 3 kts 257°
2026-05-04 01:28 26.07419 -80.13764 15 ft 3 kts 257°
2026-05-04 01:28 26.07423 -80.13743 14 ft 3 kts 273°
2026-05-04 01:28 26.07419 -80.13724 18 ft 3 kts 303°
2026-05-04 01:28 26.07406 -80.13709 17 ft 3 kts 334°
2026-05-04 01:29 26.07388 -80.13703 17 ft 3 kts
2026-05-04 01:29 26.07381 -80.13704 16 ft 0 kts 12°
2026-05-04 01:36 26.07398 -80.13697 16 ft 6 kts 20°
2026-05-04 01:36 26.07446 -80.13696 14 ft 8 kts 342°
2026-05-04 01:36 26.07470 -80.13746 12 ft 8 kts 270°
2026-05-04 01:37 26.07470 -80.13806 12 ft 8 kts 270°
2026-05-04 01:37 26.07473 -80.13868 12 ft 8 kts 281°
2026-05-04 01:37 26.07497 -80.13918 13 ft 7 kts 322°
2026-05-04 01:37 26.07546 -80.13932 13 ft 7 kts 325°
2026-05-04 01:38 26.07556 -80.13988 14 ft 9 kts 271°
2026-05-04 01:38 26.07558 -80.14061 15 ft 10 kts 271°
2026-05-04 01:38 26.07558 -80.14141 16 ft 11 kts 269°
2026-05-04 01:38 26.07558 -80.14219 17 ft 11 kts 271°
2026-05-04 01:39 26.07559 -80.14306 18 ft 12 kts 271°
2026-05-04 01:39 26.07559 -80.14404 19 ft 13 kts 270°
2026-05-04 01:39 26.07560 -80.14501 19 ft 12 kts 270°
2026-05-04 01:39 26.07560 -80.14595 18 ft 12 kts 270°
2026-05-04 01:40 26.07561 -80.14687 17 ft 12 kts 270°
2026-05-04 01:40 26.07561 -80.14777 16 ft 12 kts 270°
2026-05-04 01:40 26.07562 -80.14866 15 ft 11 kts 271°
2026-05-04 01:40 26.07563 -80.14951 14 ft 11 kts 271°
2026-05-04 01:41 26.07563 -80.15034 12 ft 11 kts 266°
2026-05-04 01:41 26.07549 -80.15108 12 ft 10 kts 230°
2026-05-04 01:41 26.07490 -80.15152 13 ft 10 kts 233°
2026-05-04 01:41 26.07489 -80.15226 11 ft 10 kts 272°
2026-05-04 01:42 26.07490 -80.15300 10 ft 9 kts 270°
2026-05-04 01:42 26.07491 -80.15373 10 ft 10 kts 271°
2026-05-04 01:42 26.07493 -80.15529 12 ft 22 kts 270°
2026-05-04 01:42 26.07493 -80.15694 13 ft 21 kts 270°
2026-05-04 01:43 26.07494 -80.15853 14 ft 20 kts 270°
2026-05-04 01:43 26.07495 -80.16009 17 ft 20 kts 270°
2026-05-04 01:43 26.07496 -80.16158 19 ft 19 kts 270°
2026-05-04 01:43 26.07497 -80.16303 17 ft 19 kts 270°
2026-05-04 01:44 26.07498 -80.16441 17 ft 18 kts 271°
2026-05-04 01:44 26.07496 -80.16581 17 ft 17 kts 269°
2026-05-04 01:44 26.07525 -80.16639 16 ft 1 kts 345°
2026-05-04 01:44 26.07532 -80.16641 16 ft 0 kts 349°
2026-05-04 01:45 26.07556 -80.16644 15 ft 12 kts 357°
2026-05-04 01:45 26.07585 -80.16643 16 ft 0 kts
2026-05-04 01:46 26.07588 -80.16643 16 ft 4 kts
2026-05-04 01:46 26.07651 -80.16641 14 ft 13 kts
2026-05-04 01:46 26.07694 -80.16561 15 ft 13 kts 83°
2026-05-04 01:46 26.07695 -80.16536 16 ft 0 kts 92°
2026-05-04 01:47 26.07694 -80.16412 19 ft 48 kts 90°
2026-05-04 01:47 26.07691 -80.15760 14 ft 118 kts 91°
2026-05-04 01:48 26.07687 -80.14638 20 ft 172 kts 89°
2026-05-04 01:48 26.07722 -80.13250 672 ft 172 kts 83°
2026-05-04 01:48 26.07859 -80.11866 1314 ft 189 kts 80°
2026-05-04 01:48 26.08182 -80.10406 2014 ft 198 kts 64°
2026-05-04 01:49 26.08865 -80.09079 2840 ft 197 kts 53°
2026-05-04 01:49 26.09839 -80.07976 3516 ft 205 kts 35°
2026-05-04 01:49 26.11094 -80.07158 4059 ft 213 kts 23°
2026-05-04 01:49 26.12454 -80.06507 4789 ft 209 kts 18°
2026-05-04 01:50 26.13812 -80.05918 5345 ft 220 kts 24°
2026-05-04 01:50 26.15160 -80.04924 5567 ft 240 kts 38°
2026-05-04 01:50 26.16546 -80.03944 6141 ft 238 kts 12°
2026-05-04 01:50 26.18201 -80.04004 6286 ft 250 kts 334°
2026-05-04 01:51 26.19776 -80.04946 6402 ft 272 kts 328°
2026-05-04 01:51 26.21550 -80.05914 6563 ft 295 kts 327°
2026-05-04 01:51 26.22921 -80.07446 7442 ft 278 kts 293°
2026-05-04 01:51 26.23332 -80.09416 8543 ft 264 kts 275°
2026-05-04 01:52 26.23809 -80.11406 9327 ft 271 kts 290°
2026-05-04 01:52 26.24537 -80.13354 10083 ft 273 kts 289°
2026-05-04 01:52 26.25260 -80.15354 10559 ft 287 kts 289°
2026-05-04 01:52 26.25957 -80.17539 10719 ft 310 kts 285°
2026-05-04 01:53 26.26598 -80.19914 10887 ft 332 kts 284°
2026-05-04 01:53 26.27266 -80.22503 11040 ft 354 kts 284°
2026-05-04 01:53 26.27950 -80.25160 11398 ft 367 kts 284°
2026-05-04 01:53 26.28670 -80.27927 12026 ft 371 kts 284°
2026-05-04 01:54 26.29402 -80.30712 12786 ft 373 kts 284°
2026-05-04 01:54 26.30133 -80.33485 13485 ft 375 kts 284°
2026-05-04 01:54 26.30874 -80.36285 14102 ft 378 kts 284°
2026-05-04 01:54 26.31623 -80.39111 14699 ft 380 kts 284°
2026-05-04 01:55 26.32373 -80.41945 15301 ft 382 kts 284°
2026-05-04 01:55 26.33126 -80.44791 15869 ft 384 kts 283°
2026-05-04 01:55 26.33889 -80.47684 16029 ft 397 kts 283°
2026-05-04 01:55 26.34683 -80.50700 16051 ft 413 kts 283°
2026-05-04 01:56 26.35506 -80.53824 16067 ft 427 kts 283°
2026-05-04 01:56 26.36354 -80.57045 16068 ft 440 kts 284°
2026-05-04 01:56 26.37242 -80.60412 16063 ft 452 kts 284°
2026-05-04 01:56 26.38126 -80.63765 16060 ft 458 kts 284°
2026-05-04 01:57 26.39024 -80.67175 16053 ft 459 kts 283°
2026-05-04 01:57 26.39994 -80.70576 16041 ft 461 kts 289°
2026-05-04 01:57 26.41584 -80.73701 16051 ft 468 kts 303°
2026-05-04 01:57 26.43766 -80.76407 16063 ft 472 kts 310°
2026-05-04 01:58 26.46092 -80.79072 16056 ft 472 kts 309°
2026-05-04 01:58 26.48348 -80.81725 16050 ft 471 kts 309°
2026-05-04 01:58 26.50568 -80.84393 16040 ft 460 kts 309°
2026-05-04 01:58 26.52818 -80.86821 16055 ft 441 kts 314°
2026-05-04 01:59 26.55100 -80.88936 16034 ft 423 kts 316°
2026-05-04 01:59 26.57374 -80.90916 16038 ft 405 kts 316°
2026-05-04 01:59 26.59571 -80.92812 16057 ft 394 kts 316°
2026-05-04 01:59 26.61730 -80.94704 16073 ft 396 kts 316°
2026-05-04 02:00 26.63890 -80.96628 16068 ft 397 kts 315°
2026-05-04 02:00 26.66036 -80.98559 16069 ft 397 kts 315°
2026-05-04 02:00 26.68176 -81.00499 16067 ft 396 kts 315°
2026-05-04 02:00 26.70344 -81.02471 16059 ft 397 kts 315°
2026-05-04 02:01 26.72488 -81.04415 16063 ft 396 kts 315°
2026-05-04 02:01 26.74626 -81.06363 16068 ft 396 kts 315°
2026-05-04 02:01 26.76756 -81.08310 16066 ft 395 kts 315°
2026-05-04 02:01 26.78884 -81.10258 16073 ft 395 kts 315°
2026-05-04 02:02 26.81026 -81.12220 16190 ft 401 kts 315°
2026-05-04 02:02 26.82482 -81.13552 16484 ft 401 kts 315°
2026-05-04 02:02 26.85343 -81.16168 17090 ft 401 kts 314°
2026-05-04 02:02 26.86809 -81.17509 17348 ft 403 kts 314°
2026-05-04 02:03 26.88982 -81.19499 17701 ft 406 kts 314°
2026-05-04 02:03 26.91179 -81.21511 18063 ft 408 kts 314°
2026-05-04 02:03 26.93353 -81.23501 18413 ft 410 kts 314°
2026-05-04 02:03 26.95565 -81.25528 18732 ft 412 kts 314°
2026-05-04 02:04 26.97817 -81.27593 19053 ft 413 kts 314°
2026-05-04 02:04 27.00042 -81.29633 19351 ft 415 kts 314°
2026-05-04 02:04 27.02257 -81.31666 19635 ft 417 kts 314°
2026-05-04 02:04 27.04518 -81.33722 19959 ft 420 kts 316°
2026-05-04 02:05 27.06997 -81.35528 20249 ft 429 kts 323°
2026-05-04 02:05 27.09655 -81.37184 20543 ft 433 kts 324°
2026-05-04 02:05 27.12316 -81.38792 20835 ft 435 kts 324°
2026-05-04 02:05 27.14946 -81.40392 21110 ft 437 kts 323°
2026-05-04 02:06 27.17611 -81.42042 21376 ft 439 kts 323°
2026-05-04 02:06 27.20277 -81.43718 21643 ft 440 kts 323°
2026-05-04 02:06 27.22824 -81.45334 21895 ft 442 kts 323°
2026-05-04 02:06 27.25505 -81.47043 22136 ft 444 kts 322°
2026-05-04 02:07 27.28203 -81.48764 22396 ft 446 kts 322°
2026-05-04 02:07 27.30909 -81.50489 22649 ft 448 kts 322°
2026-05-04 02:07 27.33622 -81.52214 22887 ft 451 kts 323°
2026-05-04 02:07 27.36463 -81.53786 23111 ft 458 kts 328°
2026-05-04 02:08 27.39372 -81.55145 23338 ft 463 kts 330°
2026-05-04 02:08 27.42393 -81.56455 23572 ft 466 kts 331°
2026-05-04 02:08 27.45413 -81.57744 23773 ft 467 kts 331°
2026-05-04 02:08 27.48511 -81.59084 24004 ft 467 kts 330°
2026-05-04 02:09 27.51492 -81.60398 24261 ft 467 kts 330°
2026-05-04 02:09 27.54512 -81.61753 24508 ft 466 kts 330°
2026-05-04 02:09 27.57521 -81.63119 24738 ft 467 kts 329°
2026-05-04 02:09 27.60530 -81.64495 24960 ft 467 kts 329°
2026-05-04 02:10 27.63580 -81.65892 25181 ft 468 kts 329°
2026-05-04 02:10 27.66565 -81.67262 25398 ft 468 kts 329°
2026-05-04 02:10 27.69573 -81.68642 25644 ft 468 kts 329°
2026-05-04 02:10 27.72594 -81.70027 25873 ft 469 kts 329°
2026-05-04 02:11 27.75620 -81.71414 26080 ft 470 kts 329°
2026-05-04 02:11 27.78638 -81.72798 26372 ft 468 kts 329°
2026-05-04 02:11 27.81686 -81.74194 26762 ft 465 kts 329°
2026-05-04 02:11 27.84681 -81.75566 27167 ft 461 kts 329°
2026-05-04 02:12 27.87634 -81.76922 27504 ft 459 kts 329°
2026-05-04 02:12 27.90601 -81.78286 27796 ft 458 kts 329°
2026-05-04 02:12 27.93625 -81.79679 28104 ft 457 kts 329°
2026-05-04 02:12 27.96529 -81.81017 28446 ft 455 kts 329°
2026-05-04 02:13 27.99449 -81.82362 28819 ft 453 kts 328°
2026-05-04 02:13 28.02364 -81.83705 29170 ft 451 kts 328°
2026-05-04 02:13 28.05253 -81.85038 29484 ft 450 kts 328°
2026-05-04 02:13 28.08190 -81.86392 29743 ft 444 kts 328°
2026-05-04 02:14 28.13928 -81.89048 29783 ft 449 kts 328°
2026-05-04 02:14 28.16820 -81.90389 30040 ft 447 kts 327°
2026-05-04 02:14 28.19503 -81.91985 30236 ft 428 kts 317°
2026-05-04 02:15 28.24329 -81.95857 30258 ft 420 kts 315°
2026-05-04 02:15 28.29125 -81.99812 30367 ft 430 kts 315°
2026-05-04 02:16 28.31574 -82.01786 30511 ft 432 kts 316°
2026-05-04 02:16 28.34016 -82.03730 30799 ft 430 kts 315°
2026-05-04 02:16 28.36461 -82.05665 31060 ft 429 kts 315°
2026-05-04 02:16 28.38892 -82.07589 31227 ft 430 kts 315°
2026-05-04 02:17 28.41375 -82.09559 31402 ft 431 kts 315°
2026-05-04 02:17 28.43867 -82.11536 31621 ft 430 kts 315°
2026-05-04 02:17 28.46309 -82.13475 31843 ft 429 kts 315°
2026-05-04 02:17 28.48759 -82.15422 32044 ft 429 kts 314°
2026-05-04 02:18 28.51209 -82.17370 32218 ft 430 kts 314°
2026-05-04 02:18 28.53654 -82.19317 32424 ft 429 kts 314°
2026-05-04 02:18 28.56095 -82.21260 32638 ft 428 kts 314°
2026-05-04 02:18 28.58536 -82.23204 32828 ft 428 kts 314°
2026-05-04 02:19 28.60985 -82.25158 33019 ft 428 kts 314°
2026-05-04 02:19 28.63419 -82.27099 33216 ft 428 kts 314°
2026-05-04 02:19 28.65859 -82.29047 33405 ft 427 kts 314°
2026-05-04 02:19 28.68286 -82.30985 33616 ft 427 kts 314°
2026-05-04 02:20 28.70716 -82.32928 33796 ft 426 kts 314°
2026-05-04 02:20 28.73147 -82.34872 33974 ft 426 kts 314°
2026-05-04 02:20 28.75565 -82.36807 34152 ft 425 kts 314°
2026-05-04 02:20 28.77979 -82.38739 34326 ft 424 kts 314°
2026-05-04 02:21 28.80423 -82.40697 34480 ft 423 kts 313°
2026-05-04 02:21 28.82830 -82.42627 34619 ft 423 kts 313°
2026-05-04 02:21 28.85238 -82.44559 34765 ft 422 kts 313°
2026-05-04 02:21 28.87636 -82.46483 34934 ft 421 kts 313°
2026-05-04 02:22 28.90028 -82.48403 35099 ft 420 kts 313°
2026-05-04 02:22 28.92413 -82.50318 35224 ft 419 kts 313°
2026-05-04 02:22 28.94802 -82.52240 35339 ft 419 kts 313°
2026-05-04 02:22 28.97188 -82.54160 35479 ft 418 kts 313°
2026-05-04 02:23 28.99556 -82.56066 35637 ft 417 kts 313°
2026-05-04 02:23 29.01932 -82.57979 35750 ft 417 kts 313°
2026-05-04 02:23 29.06661 -82.61792 35950 ft 416 kts 313°
2026-05-04 02:24 29.09032 -82.63705 36066 ft 415 kts 313°
2026-05-04 02:24 29.11383 -82.65603 36111 ft 416 kts 313°
2026-05-04 02:24 29.16125 -82.69437 36127 ft 418 kts 313°
2026-05-04 02:25 29.20882 -82.73287 36127 ft 420 kts 313°
2026-05-04 02:25 29.25667 -82.77162 36126 ft 422 kts 314°
2026-05-04 02:26 29.30503 -82.81083 36124 ft 424 kts 314°
2026-05-04 02:26 29.35289 -82.84966 36130 ft 425 kts 314°
2026-05-04 02:27 29.40115 -82.88886 36128 ft 425 kts 314°
2026-05-04 02:27 29.44926 -82.92801 36139 ft 424 kts 314°
2026-05-04 02:28 29.49738 -82.96719 36134 ft 422 kts 314°
2026-05-04 02:28 29.54995 -82.99982 36148 ft 438 kts 326°
2026-05-04 02:29 29.60637 -83.02615 36147 ft 437 kts 327°
2026-05-04 02:29 29.66289 -83.05250 36141 ft 434 kts 326°
2026-05-04 02:30 29.71866 -83.07893 36136 ft 433 kts 326°
2026-05-04 02:30 29.76485 -83.10098 36139 ft 432 kts 326°
2026-05-04 02:31 29.82024 -83.12751 36148 ft 431 kts 326°
2026-05-04 02:31 29.87565 -83.15406 36150 ft 432 kts 326°
2026-05-04 02:32 29.93123 -83.18072 36144 ft 433 kts 326°
2026-05-04 02:32 29.98691 -83.20746 36146 ft 434 kts 326°
2026-05-04 02:33 30.04319 -83.23451 36149 ft 436 kts 327°
2026-05-04 02:33 30.09892 -83.26132 36153 ft 438 kts 327°
2026-05-04 02:34 30.15527 -83.28847 36155 ft 440 kts 327°
2026-05-04 02:34 30.21225 -83.31580 36148 ft 443 kts 329°
2026-05-04 02:35 30.24209 -83.32636 36143 ft 455 kts 338°
2026-05-04 02:35 30.27382 -83.33201 36160 ft 464 kts 343°
2026-05-04 02:35 30.33822 -83.34017 36153 ft 466 kts 344°
2026-05-04 02:36 30.40264 -83.34812 36152 ft 466 kts 343°
2026-05-04 02:36 30.46713 -83.35659 36151 ft 466 kts 343°
2026-05-04 02:37 30.53152 -83.36534 36148 ft 465 kts 343°
2026-05-04 02:37 30.59533 -83.37407 36147 ft 465 kts 343°
2026-05-04 02:38 30.65866 -83.38273 36143 ft 464 kts 343°
2026-05-04 02:38 30.72306 -83.39154 36152 ft 463 kts 344°
2026-05-04 02:39 30.78698 -83.40029 36147 ft 462 kts 344°
2026-05-04 02:39 30.85071 -83.40904 36151 ft 461 kts 344°
2026-05-04 02:40 30.91439 -83.41778 36139 ft 460 kts 344°
2026-05-04 02:40 30.97805 -83.42653 36134 ft 460 kts 344°
2026-05-04 02:41 31.04142 -83.43526 36128 ft 459 kts 345°
2026-05-04 02:41 31.10489 -83.44401 36139 ft 459 kts 345°
2026-05-04 02:42 31.16765 -83.45268 36147 ft 458 kts 345°
2026-05-04 02:42 31.23096 -83.46143 36163 ft 459 kts 345°
2026-05-04 02:43 31.29441 -83.47022 36172 ft 459 kts 345°
2026-05-04 02:43 31.35788 -83.47901 36181 ft 459 kts 345°
2026-05-04 02:44 31.42024 -83.49110 36169 ft 448 kts 335°
2026-05-04 02:44 31.47556 -83.52094 36183 ft 432 kts 321°
2026-05-04 02:45 31.52634 -83.55793 36179 ft 432 kts 321°
2026-05-04 02:45 31.57720 -83.59510 36169 ft 433 kts 321°
2026-05-04 02:46 31.62850 -83.63224 36163 ft 434 kts 321°
2026-05-04 02:46 31.67945 -83.66896 36139 ft 434 kts 322°
2026-05-04 02:47 31.73140 -83.70638 36135 ft 435 kts 322°
2026-05-04 02:47 31.78306 -83.74364 36131 ft 435 kts 322°
2026-05-04 02:48 31.83465 -83.78092 36135 ft 435 kts 322°
2026-05-04 02:48 31.88060 -83.81416 36135 ft 435 kts 322°
2026-05-04 02:49 31.93209 -83.85145 36130 ft 434 kts 322°
2026-05-04 02:49 31.98312 -83.88846 36135 ft 434 kts 322°
2026-05-04 02:50 32.03485 -83.92604 36130 ft 433 kts 323°
2026-05-04 02:50 32.08594 -83.96320 36134 ft 433 kts 323°
2026-05-04 02:51 32.13765 -84.00086 36126 ft 432 kts 323°
2026-05-04 02:51 32.18887 -84.03820 36127 ft 431 kts 323°
2026-05-04 02:52 32.23950 -84.07517 36125 ft 430 kts 324°
2026-05-04 02:52 32.29059 -84.11253 36126 ft 429 kts 324°
2026-05-04 02:53 32.34126 -84.14963 36125 ft 428 kts 324°
2026-05-04 02:53 32.39181 -84.18669 36127 ft 426 kts 324°
2026-05-04 02:54 32.44206 -84.22358 36120 ft 425 kts 324°
2026-05-04 02:54 32.49227 -84.26049 36126 ft 424 kts 324°
2026-05-04 02:55 32.56750 -84.31589 36119 ft 423 kts 324°
2026-05-04 02:56 32.61740 -84.35269 36123 ft 423 kts 325°
2026-05-04 02:56 32.66738 -84.38960 36123 ft 422 kts 325°
2026-05-04 02:57 32.71717 -84.42642 36128 ft 421 kts 325°
2026-05-04 02:57 32.76689 -84.46324 36133 ft 421 kts 325°
2026-05-04 02:58 32.81647 -84.50000 36143 ft 420 kts 325°
2026-05-04 02:58 32.86639 -84.53707 36153 ft 420 kts 325°
2026-05-04 02:59 32.91587 -84.57386 36144 ft 420 kts 325°
2026-05-04 02:59 32.96538 -84.61072 36154 ft 419 kts 325°
2026-05-04 03:00 33.01487 -84.64762 36146 ft 419 kts 325°
2026-05-04 03:00 33.06429 -84.68451 36146 ft 419 kts 325°
2026-05-04 03:01 33.11367 -84.72141 36151 ft 419 kts 325°
2026-05-04 03:01 33.15468 -84.75211 36159 ft 418 kts 325°
2026-05-04 03:02 33.20389 -84.78899 36166 ft 418 kts 325°
2026-05-04 03:02 33.25318 -84.82598 36164 ft 418 kts 325°
2026-05-04 03:03 33.30240 -84.86291 36165 ft 418 kts 326°
2026-05-04 03:03 33.35416 -84.89486 36167 ft 419 kts 331°
2026-05-04 03:04 33.40705 -84.92491 36163 ft 419 kts 331°
2026-05-04 03:04 33.45989 -84.95506 36156 ft 419 kts 331°
2026-05-04 03:05 33.51182 -84.98504 36188 ft 418 kts 331°
2026-05-04 03:05 33.56441 -85.01559 36198 ft 417 kts 330°
2026-05-04 03:06 33.61631 -85.04581 36211 ft 416 kts 330°
2026-05-04 03:06 33.66862 -85.07633 36209 ft 415 kts 330°
2026-05-04 03:07 33.72007 -85.10637 36209 ft 414 kts 330°
2026-05-04 03:07 33.77186 -85.13666 36193 ft 413 kts 330°
2026-05-04 03:08 33.82376 -85.16704 36185 ft 411 kts 330°
2026-05-04 03:08 33.87513 -85.19716 36148 ft 410 kts 330°
2026-05-04 03:09 33.92638 -85.22725 36142 ft 410 kts 330°
2026-05-04 03:09 33.97762 -85.25737 36143 ft 409 kts 330°
2026-05-04 03:10 34.02863 -85.28740 36133 ft 408 kts 330°
2026-05-04 03:10 34.07837 -85.31673 36137 ft 407 kts 330°
2026-05-04 03:11 34.12926 -85.34677 36133 ft 407 kts 330°
2026-05-04 03:11 34.18046 -85.37703 36128 ft 407 kts 330°
2026-05-04 03:12 34.23130 -85.40712 36133 ft 407 kts 330°
2026-05-04 03:12 34.28207 -85.43721 36140 ft 407 kts 330°
2026-05-04 03:13 34.33316 -85.46753 36133 ft 406 kts 330°
2026-05-04 03:13 34.38355 -85.49748 36134 ft 406 kts 330°
2026-05-04 03:14 34.43356 -85.52724 36132 ft 406 kts 330°
2026-05-04 03:14 34.48439 -85.55752 36142 ft 406 kts 330°
2026-05-04 03:15 34.53507 -85.58777 36115 ft 406 kts 330°
2026-05-04 03:15 34.58581 -85.61809 36126 ft 407 kts 330°
2026-05-04 03:16 34.63658 -85.64846 36125 ft 407 kts 330°
2026-05-04 03:16 34.68727 -85.67883 36127 ft 407 kts 330°
2026-05-04 03:17 34.73859 -85.70962 36134 ft 406 kts 330°
2026-05-04 03:17 34.78940 -85.74015 36116 ft 406 kts 330°
2026-05-04 03:18 34.83998 -85.77058 36136 ft 406 kts 330°
2026-05-04 03:18 34.89061 -85.80108 36121 ft 406 kts 330°
2026-05-04 03:19 34.94120 -85.83160 36137 ft 405 kts 330°
2026-05-04 03:19 34.99185 -85.86220 36125 ft 403 kts 329°
2026-05-04 03:20 35.04220 -85.89266 36130 ft 403 kts 329°
2026-05-04 03:20 35.09235 -85.92304 36133 ft 402 kts 329°
2026-05-04 03:21 35.14240 -85.95341 36128 ft 401 kts 329°
2026-05-04 03:21 35.19264 -85.98394 36127 ft 400 kts 329°
2026-05-04 03:22 35.24254 -86.01429 36129 ft 400 kts 329°
2026-05-04 03:22 35.29230 -86.04461 36126 ft 399 kts 329°
2026-05-04 03:22 35.31819 -86.05714 35955 ft 411 kts 342°
2026-05-04 03:23 35.34660 -86.06279 36012 ft 416 kts 349°
2026-05-04 03:23 35.37594 -86.06332 36024 ft 426 kts 360°
2026-05-04 03:23 35.40542 -86.05598 35859 ft 442 kts 11°
2026-05-04 03:23 35.43424 -86.04113 35272 ft 456 kts 21°
2026-05-04 03:24 35.46097 -86.01988 34772 ft 462 kts 32°
2026-05-04 03:24 35.48540 -85.99406 34277 ft 456 kts 27°
2026-05-04 03:24 35.51246 -85.97669 33668 ft 426 kts
2026-05-04 03:24 35.54072 -85.97084 33132 ft 402 kts 353°
2026-05-04 03:25 35.56788 -85.97400 32333 ft 389 kts 341°
2026-05-04 03:25 35.59359 -85.98431 31303 ft 388 kts 332°
2026-05-04 03:25 35.61720 -86.00002 30322 ft 386 kts 321°
2026-05-04 03:25 35.63732 -86.02180 29246 ft 385 kts 311°
2026-05-04 03:26 35.65529 -86.04630 28181 ft 387 kts 310°
2026-05-04 03:27 35.72699 -86.14419 24287 ft 393 kts 311°
2026-05-04 03:27 35.74557 -86.16903 23293 ft 393 kts 311°
2026-05-04 03:27 35.76416 -86.19391 22201 ft 394 kts 311°
2026-05-04 03:27 35.78266 -86.21871 21153 ft 393 kts 311°
2026-05-04 03:28 35.80102 -86.24331 20177 ft 393 kts 311°
2026-05-04 03:28 35.81990 -86.26821 19207 ft 394 kts 312°
2026-05-04 03:28 35.83309 -86.28593 12429 ft 385 kts 313°
2026-05-04 03:28 35.85097 -86.30942 12027 ft 370 kts 313°
2026-05-04 03:29 35.86835 -86.33199 11493 ft 359 kts 314°
2026-05-04 03:29 35.88573 -86.35418 10720 ft 359 kts 314°
2026-05-04 03:29 35.90322 -86.37580 10158 ft 352 kts 315°
2026-05-04 03:29 35.92054 -86.39660 9698 ft 344 kts 316°
2026-05-04 03:30 35.93676 -86.41757 9519 ft 327 kts 310°
2026-05-04 03:30 35.95106 -86.43836 9401 ft 311 kts 310°
2026-05-04 03:30 35.96498 -86.45791 9309 ft 296 kts 311°
2026-05-04 03:30 35.97867 -86.47649 9142 ft 284 kts 312°
2026-05-04 03:31 35.99206 -86.49415 8689 ft 283 kts 312°
2026-05-04 03:31 36.00583 -86.51205 7994 ft 290 kts 312°
2026-05-04 03:31 36.01988 -86.53028 7353 ft 296 kts 312°
2026-05-04 03:31 36.03415 -86.54881 6717 ft 300 kts 311°
2026-05-04 03:32 36.05045 -86.56471 6315 ft 301 kts 332°
2026-05-04 03:32 36.07055 -86.57103 6186 ft 293 kts 353°
2026-05-04 03:32 36.08399 -86.57059 6123 ft 293 kts
2026-05-04 03:32 36.10390 -86.56412 6110 ft 295 kts 13°
2026-05-04 03:33 36.12381 -86.55758 6003 ft 298 kts 10°
2026-05-04 03:33 36.14396 -86.55158 5542 ft 298 kts
2026-05-04 03:33 36.16404 -86.54568 5131 ft 296 kts
2026-05-04 03:33 36.18404 -86.53981 4698 ft 295 kts
2026-05-04 03:34 36.20404 -86.53388 4231 ft 295 kts 10°
2026-05-04 03:34 36.22357 -86.52778 4108 ft 282 kts 10°
2026-05-04 03:34 36.24213 -86.52224 4019 ft 269 kts
2026-05-04 03:34 36.25988 -86.51707 3763 ft 264 kts 10°
2026-05-04 03:35 36.27792 -86.51176 3517 ft 259 kts
2026-05-04 03:35 36.29537 -86.50985 3240 ft 247 kts 343°
2026-05-04 03:35 36.31025 -86.51834 3143 ft 229 kts 311°
2026-05-04 03:35 36.31828 -86.53403 3099 ft 209 kts 278°
2026-05-04 03:36 36.31927 -86.55132 3093 ft 196 kts 266°
2026-05-04 03:36 36.31854 -86.56780 3069 ft 186 kts 251°
2026-05-04 03:36 36.31222 -86.58076 3076 ft 169 kts 228°
2026-05-04 03:36 36.30345 -86.59189 3090 ft 196 kts 226°
2026-05-04 03:37 36.29296 -86.60474 3146 ft 226 kts 224°
2026-05-04 03:37 36.27959 -86.61447 3442 ft 222 kts 195°
2026-05-04 03:37 36.26411 -86.61557 3236 ft 228 kts 185°
2026-05-04 03:37 36.24826 -86.61572 3035 ft 231 kts 185°
2026-05-04 03:38 36.23254 -86.61861 2927 ft 225 kts 202°
2026-05-04 03:38 36.21782 -86.62562 2639 ft 231 kts 204°
2026-05-04 03:38 36.20215 -86.63208 2206 ft 241 kts 197°
2026-05-04 03:38 36.18630 -86.63730 1902 ft 229 kts 202°
2026-05-04 03:39 36.17187 -86.64434 1587 ft 213 kts 199°
2026-05-04 03:39 36.15823 -86.64947 1188 ft 200 kts 204°
2026-05-04 03:39 36.14550 -86.65449 851 ft 185 kts 197°
2026-05-04 03:39 36.13373 -86.65938 582 ft 171 kts 194°
2026-05-04 03:40 36.12318 -86.66349 573 ft 146 kts 198°
2026-05-04 03:40 36.11610 -86.66624 596 ft 37 kts 199°
2026-05-04 03:40 36.11452 -86.66692 597 ft 22 kts 197°
2026-05-04 03:40 36.11364 -86.66727 598 ft 0 kts 199°
2026-05-04 03:41 36.11362 -86.66728 598 ft 1 kts 199°
2026-05-04 03:41 36.11357 -86.66730 598 ft 0 kts 199°
2026-05-04 03:41 36.11290 -86.66782 598 ft 22 kts 236°
2026-05-04 03:41 36.11322 -86.66871 599 ft 15 kts 333°